• Currently

    Reported at Minneapolis, Minneapolis-St. Paul International Airport, MN
    4:10 AM CST TUE SEP 19 2017
  • 61°F16°C
  • Overcast
    Overcast
  • Feels Like:61°F16°CDew Point:57°F14°CHumidity:88% Winds:SE 8 mph 13 kph
    Pressure:29.91 in1013 hPaVisibility:10.00 miles16090.00 meters
Time Weather Temp Dew Point
Humidity Winds Visibility Pressure Precipitation
1 hr 24 hr
Thursday, September 14
23:53 23:53 Clear Clear 76°F24°C 65°F18°C 69% S 7 mphS 11 kph 10.0 miles16.1 km 29.68 in1005 hPa 0.00 in0.00 mm --
22:53 22:53 Clear Clear 77°F25°C 66°F19°C 69% S 6 mphS 9 kph 10.0 miles16.1 km 29.68 in1005 hPa 0.00 in0.00 mm --
21:53 21:53 Clear Clear 79°F26°C 66°F19°C 65% S 8 mphS 13 kph 10.0 miles16.1 km 29.68 in1005 hPa 0.00 in0.00 mm --
20:53 20:53 Clear Clear 78°F26°C 66°F19°C 67% SSE 6 mphSSE 9 kph 10.0 miles16.1 km 29.68 in1005 hPa 0.00 in0.00 mm --
19:53 19:53 Mostly Clear Mostly Clear 79°F26°C 66°F19°C 65% SSE 7 mphSSE 11 kph 10.0 miles16.1 km 29.65 in1004 hPa 0.00 in0.00 mm --
18:53 18:53 Partly Cloudy Partly Cloudy 83°F28°C 65°F18°C 55% SSE 7 mphSSE 11 kph 10.0 miles16.1 km 29.65 in1004 hPa 0.00 in0.00 mm --
17:53 17:53 Mostly Cloudy Mostly Cloudy 86°F30°C 66°F19°C 51% N 7 mphN 11 kph 10.0 miles16.1 km 29.65 in1004 hPa 0.00 in0.00 mm --
16:53 16:53 Mostly Cloudy Mostly Cloudy 85°F29°C 65°F18°C 51% S 10 mphS 17 kph 10.0 miles16.1 km 29.65 in1004 hPa 0.00 in0.00 mm --
15:53 15:53 Mostly Cloudy Mostly Cloudy 85°F29°C 64°F18°C 50% S 12 mphS 19 kph 10.0 miles16.1 km 29.68 in1005 hPa 0.00 in0.00 mm --
14:53 14:53 Partly Cloudy Partly Cloudy 86°F30°C 64°F18°C 48% S 12 mphS 19 kph 10.0 miles16.1 km 29.68 in1005 hPa 0.00 in0.00 mm --
13:53 13:53 Partly Cloudy Partly Cloudy 85°F29°C 63°F17°C 48% S 15 mphS 24 kph 10.0 miles16.1 km 29.68 in1005 hPa 0.00 in0.00 mm --
12:53 12:53 Partly Cloudy Partly Cloudy 83°F28°C 62°F17°C 49% SW 12 mphSW 19 kph 10.0 miles16.1 km 29.71 in1006 hPa 0.00 in0.00 mm --
11:53 11:53 Mostly Sunny Mostly Sunny 81°F27°C 63°F17°C 54% SSW 12 mphSSW 19 kph 10.0 miles16.1 km 29.74 in1007 hPa 0.00 in0.00 mm --
10:53 10:53 Mostly Sunny Mostly Sunny 79°F26°C 64°F18°C 60% S 14 mphS 22 kph 10.0 miles16.1 km 29.74 in1007 hPa 0.00 in0.00 mm --
09:53 09:53 Mostly Sunny Mostly Sunny 75°F24°C 64°F18°C 69% S 8 mphS 13 kph 10.0 miles16.1 km 29.74 in1007 hPa 0.00 in0.00 mm --
08:53 08:53 Mostly Sunny Mostly Sunny 70°F21°C 63°F17°C 79% SSW 5 mphSSW 7 kph 10.0 miles16.1 km 29.77 in1008 hPa 0.00 in0.00 mm --
07:53 07:53 Mostly Sunny Mostly Sunny 66°F19°C 62°F17°C 87% SE 6 mphSE 9 kph 10.0 miles16.1 km 29.77 in1008 hPa 0.00 in0.00 mm --
06:53 06:53 Mostly Sunny Mostly Sunny 65°F18°C 62°F17°C 90% SE 5 mphSE 7 kph 9.0 miles14.5 km 29.77 in1008 hPa 0.00 in0.00 mm --
05:53 05:53 Mostly Clear Mostly Clear 65°F18°C 63°F17°C 93% SE 5 mphSE 7 kph 10.0 miles16.1 km 29.77 in1008 hPa 0.00 in0.00 mm --
04:53 04:53 Mostly Clear Mostly Clear 66°F19°C 62°F17°C 87% SSE 6 mphSSE 9 kph 10.0 miles16.1 km 29.77 in1008 hPa 0.00 in0.00 mm --
03:53 03:53 Clear Clear 67°F19°C 64°F18°C 91% SE 6 mphSE 9 kph 9.0 miles14.5 km 29.77 in1008 hPa 0.00 in0.00 mm --
02:53 02:53 Clear Clear 67°F19°C 65°F18°C 93% SE 7 mphSE 11 kph 9.0 miles14.5 km 29.8 in1009 hPa 0.00 in0.00 mm --
01:53 01:53 Clear Clear 69°F21°C 66°F19°C 90% SE 5 mphSE 7 kph 9.0 miles14.5 km 29.8 in1009 hPa 0.00 in0.00 mm --
00:53 00:53 Clear Clear 70°F21°C 66°F19°C 87% SE 6 mphSE 9 kph 10.0 miles16.1 km 29.8 in1009 hPa 0.00 in0.00 mm --